#timestamp,LO_Frequency,Hit,StdDev 
1617318315.5,286047014.3,P
1617318335.4,286047016.8,P
1617318355.2,286047016.3,P
1617318375.1,286047018.5,Y
1617318376.0,286047018.5,P
1617318395.8,286047001.5,N
1617318415.6,286046999.9,N
1617318435.5,286047000.3,N
1617318455.3,286047002.5,N
1617318475.1,286047004.2,N
1617318495.9,286047002.1,N
1617318515.7,286047002.0,N
1617318535.6,286047002.0,N
1617318555.4,286047003.7,N
1617318575.2,286047005.8,N
1617318595.1,286047004.7,N
1617318596.0,286047004.7,N
1617318615.8,286047005.2,N
1617318635.6,286047005.3,N
1617318655.5,286047006.8,N
1617318675.3,286047007.3,N
1617318695.2,286047007.4,N
1617318715.9,286047008.4,N
1617318735.7,286047008.8,N
1617318755.6,286047010.4,N
1617318775.4,286047007.7,N
1617318795.2,286047010.6,N
1617318815.1,286047010.3,N
1617318816.0,286047010.3,N
1617318835.8,286047010.0,N
1617318855.7,286047009.3,N
1617318875.5,286047009.4,N
1617318895.3,286047011.0,N
1617318915.2,286047011.7,N
1617318935.0,286047011.6,N
1617318935.9,286047011.6,Y
1617318955.8,286047007.1,P
1617318975.6,286047005.1,P
1617318995.4,286047006.8,P
1617319015.3,286047006.7,Y
1617319035.1,286047000.1,P
1617319055.8,286047001.3,N
1617319075.7,286047001.8,N
1617319095.5,286047004.0,N
1617319115.4,286047001.3,N
1617319135.2,286047001.7,N
1617319155.0,286047003.9,N
1617319155.9,286047003.9,N
1617319175.8,286047005.9,Y
1617319195.6,286047002.4,P
1617319215.4,286047001.9,P
1617319235.3,286047003.6,P
1617319255.1,286047003.0,Y
1617319275.9,286047002.1,P
1617319295.7,286047003.3,P
1617319315.5,286047003.2,P
1617319335.4,286047003.6,Y
1617319355.2,286047000.3,P
1617319375.0,286047000.2,N
1617319376.0,286047000.2,N
1617319395.8,286047000.2,N
1617319415.6,286046999.9,N
1617319435.5,286046999.7,N
1617319455.3,286047002.2,N
1617319475.1,286047001.6,N
1617319495.9,286047004.3,Y
1617319515.7,286047011.9,P
1617319535.6,286047003.0,N
1617319555.4,286047003.3,N
1617319575.2,286047005.7,N
1617319595.1,286047005.4,N
1617319596.0,286047005.4,N
1617319615.8,286047007.2,N
1617319635.6,286047006.4,N
1617319655.5,286047007.0,N
1617319675.3,286047007.0,N
1617319695.2,286047007.0,N
1617319715.9,286047007.4,N
1617319735.7,286047008.8,Y
1617319755.6,286046999.9,P
1617319775.4,286047002.7,N
1617319795.3,286047003.7,N
1617319815.1,286047005.9,N
1617319816.0,286047005.9,N
1617319835.8,286047006.0,N
1617319855.7,286047003.0,N
1617319875.5,286047004.5,N
1617319895.3,286047007.1,Y
1617319915.2,286047002.0,P
1617319935.0,286047001.6,N
1617319935.9,286047001.6,N
1617319955.8,286047003.1,N
1617319975.6,286047005.7,Y
1617319995.4,286047002.4,P
1617320015.3,286047002.1,P
1617320035.1,286047004.2,P
1617320055.9,286047001.4,N
1617320075.7,286047004.2,Y
1617320095.5,286047001.4,P
1617320115.4,286047002.5,P
1617320135.2,286047002.0,P
1617320155.1,286047001.6,Y
1617320156.0,286047001.6,P
1617320175.8,286047000.9,P
1617320195.6,286046998.2,P
1617320215.5,286047000.0,N
1617320235.3,286046999.8,N
1617320255.1,286047001.9,N
1617320275.9,286047001.8,N
1617320295.7,286047005.8,Y
1617320315.6,286047003.7,P
1617320335.4,286047004.3,N
1617320355.2,286047003.2,N
1617320375.1,286047003.6,N
1617320376.0,286047003.6,N
1617320395.8,286047003.6,Y
1617320415.7,286047001.6,P
1617320435.5,286047001.6,N
1617320455.3,286047001.3,N
1617320475.2,286047004.3,Y
1617320495.0,286047002.8,P
1617320495.9,286047002.8,P
1617320515.8,286047002.6,P
1617320535.6,286047002.3,Y
1617320555.4,286046999.8,P
1617320575.3,286046998.1,N
1617320595.1,286046999.9,N
1617320615.8,286047002.0,N
1617320635.7,286047003.3,N
1617320655.5,286047003.6,N
1617320675.4,286047003.1,N
1617320695.2,286047005.6,N
1617320715.0,286047003.0,N
1617320715.9,286047003.0,N
1617320735.8,286047007.6,Y
1617320755.6,286047005.6,P
1617320775.5,286047005.6,P
1617320795.3,286047005.6,P
1617320815.1,286047005.6,Y
1617320835.9,286046999.1,P
1617320855.7,286047000.7,N
1617320875.5,286047000.9,N
1617320895.4,286047000.0,N
1617320915.2,286047000.1,N
1617320935.1,286047000.9,N
1617320936.0,286047000.9,N
1617320955.8,286046998.2,N
1617320975.6,286047000.0,N
1617320995.5,286047000.5,N
1617321015.3,286047000.5,N
1617321035